Theta_e
305 304 304 304 304 304 303 303 303 303 303 304 307 311 312 312 312 312 310 308 306 306 305 305 306 306 306 306 307 307 309 311 313 314 315 315 315 314 313 313 313 313 312 312 311 311 310 309 309 308 308 308 308 307 307 307 307 308 309 310 311 311 311 311 312 313 314 317 319 322 324 325 326 326
306 306 306 306 306 305 304 304 305 304 304 304 305 308 311 311 311 311 310 307 305 304 305 305 305 306 306 306 306 306 306 306 306 306 307 307 307 307 306 306 306 306 305 305 305 305 304 304 304 304 304 305 306 306 305 306 307 309 310 311 312 312 312 312 312 312 312 312 314 316 318 321 323 324
306 306 306 306 306 306 306 306 306 305 305 305 305 306 309 310 309 309 309 307 305 305 306 306 307 308 308 308 308 307 307 307 306 306 306 306 306 305 305 305 305 305 304 304 304 304 304 303 303 304 304 304 305 305 305 306 307 308 309 310 311 311 312 312 312 312 312 311 311 312 314 317 319 322
306 306 306 306 306 306 306 306 306 306 306 306 306 306 307 308 308 307 307 307 306 307 308 308 309 310 310 310 309 309 308 308 308 307 307 307 307 307 306 307 306 306 306 305 305 304 304 304 304 304 304 304 305 305 306 306 307 307 307 308 309 309 310 311 311 312 312 312 312 312 312 314 318 320
308 308 307 307 307 306 306 306 306 306 306 306 306 306 307 308 309 310 310 310 310 311 311 311 311 311 311 311 310 310 310 309 309 308 308 307 307 307 307 307 307 307 306 306 306 305 305 304 304 304 304 304 305 305 305 305 306 306 306 307 307 308 308 308 309 310 311 312 312 313 313 314 316 319
311 310 310 310 310 309 308 307 307 307 307 307 306 307 309 311 313 313 314 313 312 312 311 311 311 311 311 311 311 311 311 310 309 309 309 308 308 308 308 308 307 307 306 306 305 305 305 304 304 304 304 304 304 304 305 305 305 306 306 306 307 307 307 307 307 307 308 309 310 312 314 314 315 317
313 312 312 313 313 313 311 310 309 308 308 308 308 309 311 313 314 314 314 314 313 312 311 311 311 310 310 310 310 310 310 309 309 308 309 308 308 308 308 307 307 307 306 306 305 304 304 304 304 304 304 303 303 304 304 304 304 305 305 305 306 306 306 306 306 306 306 306 307 309 311 314 315 316
314 314 313 314 314 315 314 313 311 309 309 310 311 312 313 314 314 314 314 314 313 313 313 313 312 312 311 310 310 309 309 308 308 307 307 307 307 307 307 307 307 306 306 305 304 304 303 303 303 303 303 303 303 303 303 303 303 303 304 304 305 305 305 306 306 305 305 306 306 306 307 310 313 315
316 315 315 314 314 315 315 315 313 311 310 311 313 314 314 314 314 314 314 314 314 313 313 313 313 312 312 311 310 310 309 308 308 307 307 306 306 306 306 306 306 306 306 305 305 304 303 302 302 302 302 302 302 302 302 302 302 302 302 302 303 303 304 305 305 306 306 306 306 307 307 307 309 311
317 317 316 316 315 314 315 315 314 313 311 311 312 313 313 314 314 314 314 314 314 313 313 313 313 312 312 311 311 310 309 309 308 307 306 306 305 305 305 305 305 305 305 305 304 304 303 302 301 301 301 301 301 301 301 301 301 301 301 301 301 302 302 302 303 304 305 306 306 307 307 307 307 308
317 317 317 317 316 316 315 314 314 314 313 313 312 312 312 312 313 313 313 313 313 313 313 313 312 312 312 311 310 310 309 308 307 307 306 305 305 305 305 305 304 304 304 304 304 303 303 302 301 301 300 300 300 300 301 301 301 301 301 301 301 301 301 301 301 301 302 303 304 304 305 305 306 307
317 317 317 318 318 317 316 315 315 315 315 314 314 313 312 312 312 312 312 313 313 313 312 312 312 312 312 311 310 309 308 308 307 307 306 306 305 305 305 304 303 302 302 302 302 302 302 301 301 301 300 300 300 299 300 300 300 300 301 301 301 301 301 301 301 301 301 301 301 301 302 302 303 304
318 318 318 318 318 318 317 317 316 315 315 315 315 314 313 313 312 312 312 312 312 312 312 312 312 311 311 311 309 308 308 307 307 306 306 306 305 304 303 302 301 301 300 300 301 301 300 300 300 300 300 300 299 299 299 299 299 299 300 300 300 300 301 301 301 301 301 301 301 301 301 301 301 301
318 319 318 318 318 318 318 318 317 316 315 315 315 315 314 312 312 312 313 312 311 311 311 311 311 311 311 310 309 308 307 307 306 305 305 305 303 302 300 299 299 300 299 299 300 300 299 299 299 299 299 299 299 299 299 299 299 299 299 299 299 299 300 300 300 300 300 300 300 300 300 300 301 301
318 318 318 318 318 318 318 318 317 316 316 315 314 314 313 312 312 312 312 312 311 311 310 310 310 310 310 310 308 307 307 306 305 305 304 302 299 298 298 297 298 298 298 298 299 299 299 298 298 298 298 298 298 298 299 299 299 299 299 299 299 299 299 299 299 300 300 300 300 300 300 300 300 300
315 316 318 319 319 319 319 318 317 315 315 315 314 314 313 312 312 312 311 311 310 310 310 310 310 309 309 308 307 305 305 305 304 303 301 299 297 297 297 297 297 297 297 297 298 298 298 298 298 298 298 298 298 298 298 298 298 298 298 298 299 299 299 299 299 299 299 299 300 300 300 300 300 300
311 312 313 316 318 319 319 319 318 316 315 315 314 313 312 311 311 311 310 310 309 309 309 309 309 309 308 306 304 303 304 303 301 300 298 296 296 296 296 296 296 296 296 296 297 298 298 297 297 297 298 298 298 298 298 298 298 298 298 298 298 298 298 299 299 299 299 299 299 299 299 299 300 300
310 310 310 312 314 315 317 317 317 317 317 316 314 312 311 311 311 310 309 309 309 309 308 308 308 308 307 304 303 302 302 300 298 296 296 296 295 295 295 296 296 296 296 296 296 296 297 297 296 297 297 298 298 298 298 298 298 298 297 297 297 297 298 298 298 298 298 299 299 299 299 299 299 299
309 309 310 311 313 314 315 316 316 316 316 315 312 311 310 310 309 309 308 308 308 308 308 308 308 307 305 303 302 301 299 296 295 295 295 295 295 295 295 295 295 295 295 295 295 295 296 296 296 296 297 297 297 297 298 298 298 298 297 297 297 297 297 297 297 298 298 298 298 298 298 298 298 299
308 308 310 311 313 313 314 314 315 314 313 311 310 309 309 309 308 308 308 308 308 307 308 307 306 305 304 302 300 298 296 295 295 295 295 295 294 294 294 294 294 294 294 294 294 294 294 295 295 295 296 296 296 297 297 297 297 297 297 297 297 297 297 297 297 297 297 297 297 298 298 298 298 298
307 307 308 309 310 310 311 311 311 311 310 309 308 308 308 308 308 308 308 307 307 307 307 306 305 304 302 300 297 295 295 294 295 294 294 294 293 293 293 294 294 294 293 293 293 293 294 294 293 294 294 295 295 295 295 296 296 297 297 297 297 297 297 296 296 296 296 296 296 297 297 297 298 298
306 306 307 306 306 307 308 309 309 308 307 307 307 307 307 307 307 307 307 307 306 306 305 304 303 301 299 296 295 295 294 294 294 294 294 294 293 293 293 293 293 293 293 293 293 293 293 293 293 293 293 294 294 294 294 295 295 295 296 296 297 297 297 297 296 296 296 296 296 296 296 296 297 297
306 307 307 307 307 307 307 307 307 307 307 307 307 307 307 306 306 306 306 305 305 304 303 301 299 297 295 295 294 295 295 294 294 294 294 293 293 292 292 292 292 293 293 293 292 293 293 293 293 292 292 293 293 293 294 294 294 295 295 295 296 296 297 297 296 296 295 295 295 295 295 295 296 296
307 307 307 307 307 306 306 306 307 306 306 307 307 306 306 306 305 305 304 304 303 301 299 297 295 295 295 295 295 294 294 294 294 294 294 293 293 292 292 292 292 292 292 292 292 292 292 292 292 292 292 292 292 293 293 293 293 294 295 295 295 296 296 296 296 296 295 295 295 294 295 295 295 296
306 306 306 306 306 305 305 305 305 305 305 306 306 305 305 305 305 304 303 301 299 297 295 295 294 294 294 294 294 294 294 294 294 294 294 294 293 293 292 292 292 292 292 292 291 291 291 291 291 291 291 291 291 292 292 292 292 293 293 293 294 295 295 295 295 295 295 295 295 295 295 295 295 295
305 304 305 305 305 305 305 305 305 304 304 304 304 305 304 304 303 302 299 296 295 294 294 294 294 294 294 294 294 295 295 295 295 294 294 294 293 293 292 292 292 292 292 292 291 290 290 290 290 291 291 291 291 291 292 292 292 292 292 293 293 294 294 294 294 295 295 295 296 295 295 295 295 295
303 303 303 304 304 304 304 304 304 303 303 303 304 303 302 300 299 297 295 294 294 294 294 294 294 294 294 294 295 295 295 294 294 294 294 293 293 293 293 292 292 292 292 291 291 290 290 290 290 290 290 291 291 291 291 292 292 292 292 293 293 293 293 293 294 294 294 295 295 295 295 295 295 295
302 302 303 303 303 303 302 302 302 302 302 302 300 299 297 295 294 294 293 294 294 294 294 294 294 294 295 295 295 294 294 294 294 293 293 293 293 293 293 292 292 292 292 291 290 290 289 289 289 289 290 290 290 290 291 291 291 291 292 292 293 293 293 293 293 293 293 294 295 295 296 296 296 296
301 302 302 302 301 301 301 301 301 300 299 297 296 294 294 293 293 293 293 293 293 294 294 294 294 295 294 294 294 294 294 294 294 293 293 293 292 292 291 291 291 291 290 290 290 289 289 289 289 289 289 290 290 290 290 290 290 291 291 291 292 293 293 293 293 293 293 294 295 295 296 296 296 296
301 300 300 300 300 300 299 298 297 296 295 294 293 293 293 293 293 293 293 293 294 294 294 295 295 294 294 294 294 294 294 293 293 292 291 291 291 290 290 290 290 290 290 290 289 289 289 289 289 289 289 289 289 289 290 290 290 291 291 291 291 293 293 293 292 293 293 293 294 294 295 295 295 295
301 300 300 299 299 298 296 295 294 294 293 293 293 293 293 293 293 293 293 294 294 294 294 294 294 294 294 293 293 293 293 292 291 291 290 290 290 290 290 290 290 291 291 290 290 290 290 290 289 289 289 289 289 290 289 289 290 290 291 291 291 292 293 292 292 292 293 293 293 293 294 294 294 294
300 299 298 297 296 295 293 293 293 293 293 292 292 293 293 293 293 293 294 294 294 294 294 294 293 293 293 292 292 292 291 291 291 291 291 290 290 290 290 290 290 290 291 291 290 290 290 290 290 290 289 289 289 290 289 290 290 291 291 291 291 291 292 292 292 292 292 292 293 293 294 294 294 294
298 297 295 294 293 293 293 293 292 292 292 292 292 292 293 293 293 293 293 293 293 293 293 292 292 292 292 291 291 291 291 291 291 291 291 291 291 290 290 290 290 290 290 290 290 291 291 290 290 290 290 290 289 289 290 290 291 291 291 291 291 291 292 292 292 292 292 293 293 293 293 294 294 294
296 295 293 293 293 293 292 292 292 292 292 292 292 293 293 293 293 293 293 292 292 292 292 291 291 291 291 291 291 291 292 292 292 292 291 291 291 291 290 290 290 290 290 290 290 291 291 290 290 290 290 290 290 290 290 291 291 291 291 291 291 291 292 292 292 292 292 293 293 293 293 293 294 294
294 293 293 292 292 292 291 292 292 292 292 292 293 293 293 292 292 292 292 292 292 291 291 290 290 290 290 290 291 291 292 292 292 292 292 291 291 291 290 290 291 290 290 290 291 291 290 290 290 290 291 291 290 290 291 291 292 291 291 291 291 291 292 292 292 292 292 292 293 293 293 294 294 294
293 293 292 292 291 291 292 292 292 293 292 293 293 293 292 292 291 291 291 291 291 291 290 290 290 289 290 290 291 291 292 292 292 292 291 291 291 290 290 291 291 291 291 291 291 291 291 291 290 290 290 290 290 291 291 292 292 292 291 291 291 291 292 292 292 292 292 292 292 293 293 294 295 295
293 293 292 291 291 291 292 292 293 292 292 293 292 292 292 291 291 291 291 291 291 290 290 290 290 290 290 291 291 291 291 291 291 291 290 290 290 290 291 291 291 291 292 291 292 292 292 291 291 290 290 290 290 291 291 291 292 292 291 291 292 291 291 292 292 291 292 292 292 293 293 294 295 295
293 293 292 291 291 292 292 292 292 292 292 292 292 291 291 291 291 291 291 290 290 290 290 290 290 291 291 291 291 291 291 291 290 290 290 290 290 291 291 291 292 292 292 292 292 292 292 292 292 291 290 290 290 290 291 291 291 291 292 292 292 291 291 291 291 291 292 292 293 293 293 294 295 295
294 293 292 291 291 291 292 292 292 292 292 292 291 291 291 291 291 291 291 291 291 291 290 290 291 291 291 291 291 291 290 290 290 290 290 290 291 291 291 291 292 292 292 292 292 292 292 292 292 292 290 290 290 290 290 291 291 292 292 292 292 291 291 291 291 291 291 292 292 293 294 294 295 295
294 293 292 291 290 291 292 292 292 292 292 291 291 290 290 290 290 290 290 291 291 291 290 291 291 291 291 291 291 290 290 289 289 290 290 290 291 291 292 292 292 292 292 292 292 292 292 292 292 292 291 291 291 291 291 291 291 292 292 292 291 291 291 291 291 291 291 292 292 293 293 294 294 295
294 294 292 291 290 291 292 292 292 292 291 291 290 290 290 290 290 290 290 290 290 291 291 291 291 291 291 291 290 290 290 290 290 290 290 290 291 291 292 292 292 292 292 292 293 293 293 293 292 292 292 292 292 292 291 291 292 292 291 291 291 291 291 291 291 291 291 292 292 293 293 293 294 294
294 294 293 292 290 290 291 292 292 292 291 291 290 290 289 289 290 290 290 290 291 291 291 291 290 290 290 290 290 290 290 290 290 290 290 290 291 291 292 292 292 292 292 293 293 293 293 293 293 292 292 292 292 291 291 291 291 291 291 291 291 291 292 292 292 292 292 292 292 293 293 293 294 294
294 294 294 292 291 290 291 292 292 292 291 290 290 290 289 290 290 290 290 290 290 290 290 290 290 290 290 290 290 290 290 290 291 291 291 291 291 291 292 292 292 292 293 293 293 293 293 293 293 292 292 292 291 291 292 292 292 291 291 291 291 292 292 292 292 292 292 292 293 293 293 293 293 294
294 294 294 292 290 291 292 292 292 292 291 290 290 290 290 290 290 289 290 290 290 290 290 290 290 290 290 290 290 290 291 291 291 291 290 290 291 291 292 292 293 293 293 293 293 293 293 293 292 291 291 292 292 292 292 292 292 291 291 291 292 292 291 291 292 293 293 293 293 293 293 293 293 294
294 294 294 292 290 291 292 292 292 291 291 290 290 290 290 290 290 290 289 290 290 290 290 290 290 290 290 290 290 291 291 291 291 291 290 290 291 291 292 292 293 293 293 293 293 293 293 292 292 292 292 292 292 292 292 292 292 292 292 292 291 291 291 291 291 292 293 293 293 293 294 294 294 294
Wind_Speed
11 11 11 11 11 12 12 11 11 10 9 7 8 10 9 8 10 10 9 8 7 5 5 5 5 4 3 3 3 3 3 4 5 7 8 9 11 12 12 13 14 15 15 16 17 18 18 18 18 18 18 18 19 18 18 17 17 17 17 17 17 18 18 19 19 19 20 21 21 21 23 25 28 28
9 9 9 10 10 11 12 12 12 12 11 9 7 8 8 7 7 8 9 9 7 5 5 4 5 5 4 4 4 4 5 5 6 7 8 9 10 11 12 13 14 14 15 16 16 17 17 18 18 18 18 18 19 19 18 18 17 17 17 17 17 17 17 17 17 18 18 19 20 21 22 24 26 27
7 7 7 7 8 9 9 9 10 11 11 11 10 8 7 8 6 5 6 7 6 5 5 4 5 6 6 6 6 6 6 6 7 7 8 9 9 10 11 12 13 14 14 14 15 15 16 16 17 17 18 18 18 18 18 18 18 19 19 19 19 19 18 18 17 17 17 17 18 19 21 22 24 25
5 5 5 5 6 6 6 6 6 7 8 9 10 10 8 8 7 5 5 6 7 5 5 6 6 7 7 8 8 7 7 7 7 8 8 9 10 11 12 12 13 14 14 15 15 15 16 16 17 17 18 18 19 19 19 19 19 20 21 21 22 22 21 21 20 19 18 17 17 18 20 22 23 24
4 4 4 4 4 4 4 4 4 4 5 6 7 8 8 8 8 8 7 7 8 7 7 7 7 8 8 9 9 8 9 8 8 9 9 10 11 12 13 13 14 14 15 15 16 16 17 17 17 18 18 19 19 20 20 21 21 21 22 23 23 23 24 24 23 22 21 19 18 18 19 21 23 24
4 4 4 4 3 3 2 2 2 2 2 3 4 5 6 6 7 7 8 9 9 9 9 9 9 9 9 10 10 10 11 11 11 12 12 12 13 14 15 16 16 16 16 17 17 17 18 18 18 19 19 20 20 21 21 22 22 23 23 24 24 25 25 25 25 25 24 22 21 21 20 21 22 24
4 4 4 4 3 3 2 1 1 1 1 2 3 4 4 5 5 6 7 8 9 9 10 11 12 12 13 12 12 12 13 13 13 14 14 15 15 16 16 17 18 18 18 18 19 19 19 20 20 20 21 21 22 22 23 23 23 24 24 25 25 26 26 25 25 25 25 24 23 23 22 22 23 23
5 5 5 4 3 3 3 2 1 1 0 1 2 3 2 2 3 5 7 8 9 10 11 12 13 14 16 17 16 15 14 14 14 15 16 16 17 17 17 18 18 19 19 19 19 19 20 21 21 22 22 23 24 24 24 25 25 25 26 26 26 26 26 25 25 25 25 25 24 23 23 24 24 24
8 7 6 7 6 5 3 2 2 2 2 2 2 3 2 1 3 5 6 8 9 11 12 13 14 16 18 19 19 18 17 18 18 19 19 19 18 18 18 18 19 19 19 19 19 19 20 20 21 22 23 24 24 25 26 26 27 27 28 28 28 28 27 27 27 26 26 25 25 24 24 24 25 25
12 10 9 10 10 8 7 6 5 5 5 5 5 5 5 5 6 7 7 7 9 11 13 13 14 16 18 19 20 21 21 21 22 23 23 23 21 20 19 19 20 20 20 20 20 20 20 20 21 22 23 24 25 25 26 26 27 28 29 29 29 29 29 29 29 29 28 27 27 26 26 25 25 26
15 13 12 13 13 13 11 9 9 9 8 7 7 7 7 8 9 9 8 8 10 12 13 13 14 15 17 18 19 21 23 24 26 26 26 26 25 24 23 22 21 21 21 21 20 21 21 21 21 22 22 23 24 25 26 26 27 28 29 30 30 30 30 30 30 30 30 31 30 30 30 29 29 28
15 14 14 14 15 16 15 13 12 12 11 9 9 10 10 10 11 11 11 12 14 15 14 14 15 16 17 18 19 20 23 25 27 28 28 29 28 26 25 25 24 23 23 22 22 22 22 22 23 23 23 24 24 24 25 26 27 29 30 30 30 31 31 31 31 31 31 31 31 32 32 32 31 31
16 17 17 18 18 17 16 16 15 15 14 13 13 13 13 13 13 13 13 14 16 16 15 15 16 16 18 20 21 22 23 26 28 30 31 31 30 28 27 26 26 25 24 24 24 24 24 24 24 25 25 25 25 24 24 25 26 27 29 29 30 31 31 32 32 32 32 31 31 32 32 32 32 32
14 15 16 18 19 19 18 18 17 17 17 16 15 15 16 16 16 15 15 16 17 16 15 15 16 17 19 22 23 23 25 28 30 31 32 31 30 29 27 27 27 27 26 26 26 27 27 27 27 26 27 26 26 25 24 25 25 26 27 27 28 29 30 31 32 32 32 32 32 32 32 32 33 33
12 13 15 16 19 20 20 19 18 18 18 17 16 17 19 18 18 17 17 17 17 17 16 17 17 18 20 23 24 25 27 29 31 31 31 30 29 29 28 28 28 28 28 28 28 28 29 29 29 28 28 28 27 26 25 25 24 25 25 26 27 27 28 29 30 31 32 32 33 32 32 32 33 33
11 12 14 15 17 19 19 19 19 16 15 16 18 19 20 20 19 19 18 18 18 17 17 18 18 19 21 23 24 25 26 29 31 31 30 30 29 29 29 28 28 28 29 30 30 29 29 30 29 28 29 30 29 28 27 26 25 24 24 24 25 26 28 28 29 30 31 32 32 33 33 33 33 33
11 11 12 13 15 16 17 17 17 14 12 15 19 20 21 21 20 19 19 18 18 18 18 18 19 21 23 24 25 26 27 29 30 30 30 29 30 29 29 30 29 29 29 30 31 30 29 30 31 29 28 29 30 29 29 27 26 25 24 23 23 24 26 27 29 29 30 31 32 32 33 34 34 34
11 11 11 11 13 15 15 16 16 15 12 13 16 19 20 20 20 19 18 17 18 18 18 19 21 24 25 25 26 27 28 29 29 29 29 29 29 30 30 31 30 30 30 29 28 29 29 30 32 31 29 29 29 28 28 27 26 27 26 24 23 24 25 25 27 28 29 30 31 32 32 33 34 35
10 10 10 10 11 12 14 14 15 13 10 10 13 17 19 19 19 18 17 18 19 19 20 21 23 25 26 26 27 28 29 29 29 29 29 29 30 30 29 29 29 29 28 25 22 24 27 27 28 29 29 30 30 29 29 28 26 26 25 24 24 25 25 25 25 26 27 28 30 31 32 33 34 35
9 9 9 8 8 9 10 10 9 7 6 8 12 15 17 17 17 17 18 19 19 20 22 23 25 26 27 27 28 28 28 29 29 30 30 29 28 27 26 25 24 23 23 19 16 19 22 22 23 27 28 30 31 29 28 28 25 23 22 23 23 24 24 25 26 26 26 27 27 29 30 31 33 34
8 7 7 7 6 6 6 4 4 4 6 10 13 15 16 16 16 17 18 19 21 23 25 26 27 28 28 28 28 28 28 29 29 29 27 26 25 25 23 21 20 20 20 17 13 16 18 16 18 23 24 25 27 27 26 24 22 21 20 20 21 22 23 24 26 27 28 27 26 26 27 28 30 32
6 6 5 6 5 5 4 3 3 6 9 11 13 13 14 15 17 19 21 22 25 26 27 27 27 27 27 27 27 27 28 28 27 27 25 24 25 24 22 20 20 21 19 14 13 17 18 15 15 18 19 20 20 20 20 18 16 18 21 23 22 21 20 21 23 25 26 27 27 26 25 25 27 29
4 4 5 5 5 5 5 5 7 9 11 12 14 15 16 19 21 22 23 24 25 25 26 26 26 26 27 27 27 27 26 26 25 24 23 23 23 22 21 19 18 19 17 12 13 18 19 16 15 15 17 19 18 14 13 14 15 19 23 23 21 20 19 19 20 21 22 23 24 24 23 23 24 25
3 3 4 5 5 6 7 8 10 12 13 14 15 16 18 20 21 22 22 23 23 24 25 25 25 25 26 26 26 25 25 24 24 23 23 23 21 19 18 16 15 17 16 12 13 19 19 17 16 15 15 19 19 16 15 15 17 20 21 18 17 17 17 16 15 16 17 19 19 20 21 21 21 22
3 4 6 7 8 9 10 12 13 14 15 16 16 17 19 20 21 21 23 23 23 24 24 24 24 24 24 24 24 24 23 23 23 23 23 23 22 19 18 17 17 18 17 15 18 21 20 18 18 16 15 17 18 19 18 17 16 16 16 15 15 16 16 15 15 14 14 15 15 16 17 18 18 19
7 8 9 10 12 12 13 14 15 16 17 18 19 19 19 20 21 22 22 22 22 22 22 23 23 23 23 23 23 23 23 22 23 23 23 23 22 22 21 21 21 22 22 21 21 22 21 19 18 17 17 17 18 19 19 18 15 14 14 13 13 15 17 18 17 15 14 13 13 13 15 15 16 17
10 11 11 12 13 14 14 15 16 17 17 18 18 19 19 19 20 21 20 20 20 21 21 22 22 22 23 23 23 23 23 23 23 24 24 23 23 23 23 23 24 25 26 24 22 21 20 19 18 17 17 18 19 19 19 18 16 15 15 15 14 14 15 16 15 16 15 14 13 13 14 13 14 15
10 9 10 11 13 15 15 15 16 16 17 18 18 18 18 18 18 18 19 19 20 21 21 21 22 22 22 23 23 23 23 23 24 24 24 23 23 23 23 23 23 24 25 23 22 20 17 16 17 17 17 17 18 19 18 17 17 16 17 17 17 15 13 13 14 15 16 14 13 13 13 12 12 13
8 8 10 11 12 13 13 14 15 16 17 17 17 17 17 17 17 18 18 19 20 20 21 21 21 21 22 22 22 22 22 23 23 23 23 23 22 21 20 19 19 19 18 17 17 16 14 14 15 15 15 16 17 18 18 18 18 18 18 18 18 17 15 14 14 14 15 15 14 13 13 12 12 13
8 8 9 10 10 11 12 14 15 16 15 15 15 15 16 16 17 17 18 19 19 20 20 21 21 21 21 21 21 22 23 23 21 20 20 20 18 16 15 15 16 15 13 12 13 13 13 13 13 14 15 15 16 16 16 17 19 18 16 16 17 19 18 15 14 15 15 15 15 15 15 15 16 17
6 6 7 8 9 11 12 13 13 13 13 13 14 15 15 15 16 17 17 18 18 19 19 20 20 20 20 20 20 21 21 19 17 17 17 16 15 14 14 15 18 18 15 13 12 13 13 13 13 14 15 16 16 16 15 16 18 19 17 15 16 18 17 15 14 14 14 14 15 14 14 16 17 19
7 7 8 9 10 11 11 11 11 11 12 13 13 13 14 14 15 15 16 16 16 18 19 19 19 18 18 18 19 19 19 17 15 17 18 16 15 17 17 19 21 22 20 16 14 13 14 14 14 14 15 15 17 16 16 18 19 19 17 16 15 15 15 14 14 13 12 13 14 13 13 13 14 15
8 9 9 9 9 9 8 9 10 11 11 11 12 12 12 13 13 13 14 14 15 18 19 18 17 17 17 17 18 19 19 18 17 18 19 19 19 21 21 22 24 24 22 19 17 16 15 15 14 15 15 17 18 16 16 18 19 17 15 14 14 13 13 12 12 12 12 12 13 13 13 12 12 14
7 8 8 8 7 7 8 9 9 10 10 10 10 11 11 11 12 13 13 13 16 18 19 17 16 16 17 18 19 19 20 20 20 20 21 22 22 22 22 23 24 23 21 21 20 18 18 17 17 17 18 18 17 16 15 17 18 15 12 13 13 13 12 12 12 12 12 12 12 14 15 14 12 12
7 8 7 7 7 7 7 8 8 8 9 8 8 9 10 11 12 13 13 14 17 18 18 17 16 17 17 18 19 20 20 21 22 22 22 22 22 23 23 23 23 23 22 23 22 20 18 18 18 19 19 18 16 15 14 14 15 13 11 11 12 12 11 11 12 13 14 13 12 14 16 15 13 10
7 7 7 6 6 6 7 7 7 7 7 7 8 9 11 11 11 12 13 15 16 16 16 16 16 16 17 18 19 20 20 21 22 22 22 22 22 22 23 23 23 23 23 23 23 21 19 19 18 18 18 17 15 14 14 13 13 13 13 12 12 12 12 13 14 14 14 13 12 13 16 17 14 11
8 7 6 5 5 5 5 5 5 6 7 8 8 10 12 12 11 11 13 14 13 13 13 14 15 15 16 17 18 19 19 20 21 22 22 21 21 21 23 24 24 24 24 23 22 21 20 19 18 16 16 15 14 14 14 12 12 14 14 15 16 16 16 18 18 16 14 14 12 13 15 17 16 12
7 6 4 4 4 4 4 4 5 6 7 8 9 11 13 13 12 13 14 12 11 11 12 13 14 15 15 15 17 18 19 20 20 21 21 20 20 21 23 24 24 24 23 22 21 20 19 18 17 16 15 14 14 15 15 13 12 14 16 18 20 21 20 19 16 14 14 14 13 13 14 14 12 10
7 4 3 3 3 3 3 4 5 5 6 7 9 11 13 14 14 16 16 14 13 13 14 14 16 17 15 15 16 17 18 19 20 21 20 20 20 21 23 24 24 23 23 22 21 20 18 18 17 15 14 15 16 17 18 19 19 19 18 18 18 18 18 16 14 13 14 14 13 13 13 10 6 6
5 3 2 2 3 3 4 4 4 5 5 7 9 11 12 14 15 17 18 18 18 17 17 17 18 18 17 17 17 17 18 19 20 20 20 20 20 20 22 23 23 22 23 22 22 21 20 19 18 16 16 16 17 17 18 20 20 19 16 13 13 14 14 14 14 14 14 13 13 13 11 6 4 5
4 3 2 3 3 4 4 3 3 4 5 7 9 10 11 13 15 16 17 18 19 20 19 18 19 19 19 19 19 19 20 20 20 20 19 19 19 20 21 22 22 22 22 23 22 21 20 18 17 16 16 15 15 16 16 17 17 15 13 11 11 12 12 12 13 14 12 11 11 10 8 5 5 5
3 2 3 3 4 4 3 2 2 3 5 7 8 9 11 13 14 16 17 19 20 20 20 19 19 21 22 22 22 21 21 20 21 20 19 18 18 20 21 21 21 22 21 21 21 20 17 15 14 14 14 13 12 12 13 14 14 14 12 10 10 11 11 11 12 11 9 8 8 7 4 4 4 4
2 2 3 4 5 4 3 2 1 3 5 6 7 9 10 12 13 15 17 18 20 21 22 21 21 22 23 23 23 23 21 21 21 20 17 16 17 19 20 21 21 21 20 19 19 18 16 14 13 12 11 11 10 11 12 13 13 12 11 10 10 10 10 9 8 6 5 5 5 3 1 1 2 3
2 3 4 5 5 4 2 1 1 3 4 6 7 8 9 11 12 14 16 18 19 21 22 23 23 24 25 25 25 24 22 22 21 20 17 15 17 19 19 20 21 20 19 18 18 17 16 14 12 9 9 9 10 12 12 12 11 10 10 10 9 9 9 7 4 2 2 2 1 2 3 1 1 1
2 3 5 5 5 4 2 1 1 3 4 5 6 7 9 11 12 13 15 17 19 20 22 23 24 24 25 26 25 24 23 22 22 20 17 15 17 18 18 19 20 20 19 17 16 16 16 14 10 8 8 9 10 12 13 11 10 10 9 8 7 7 7 7 5 3 3 4 5 4 3 2 2 3
Wind_Direction
79 80 83 83 82 82 80 80 79 77 85 114 152 166 169 159 147 140 125 112 109 106 95 80 68 63 52 40 25 2 337 312 305 300 298 300 301 303 305 304 303 301 300 298 298 297 297 297 296 296 295 294 294 294 294 293 290 286 283 282 279 277 275 274 272 270 267 264 263 261 260 261 263 267
75 75 80 83 83 86 88 88 88 86 85 92 119 154 167 166 159 152 139 124 114 106 96 81 66 56 46 37 25 7 353 337 325 317 311 307 305 305 304 303 303 301 300 300 299 300 299 299 298 297 296 295 294 293 293 292 288 283 281 281 280 279 278 277 276 275 271 268 265 263 262 261 261 262
61 61 63 67 70 75 81 85 90 92 92 95 104 128 158 167 166 163 150 131 116 101 81 63 45 34 28 25 14 1 353 345 338 331 324 320 317 313 310 307 306 305 305 305 304 304 303 302 301 299 298 297 295 294 292 290 288 283 280 278 278 278 277 276 276 275 275 273 269 265 263 263 263 261
43 46 46 48 50 57 61 64 72 80 85 91 97 105 123 136 130 124 129 118 101 78 51 36 22 12 8 6 359 352 347 342 338 334 329 328 325 321 317 314 311 310 309 308 307 306 305 303 302 300 298 296 294 293 290 289 287 285 283 281 279 278 277 276 275 273 273 271 269 267 264 263 264 264
24 25 25 25 26 34 43 43 43 54 68 78 88 95 100 104 101 95 90 82 70 51 30 19 8 358 352 349 345 341 338 336 336 335 333 331 327 324 321 318 317 315 313 310 308 306 304 302 300 299 297 295 293 291 289 287 286 285 284 283 282 281 280 280 279 277 274 270 267 266 264 263 263 263
5 8 7 4 5 8 10 16 21 32 58 73 88 96 95 95 89 77 65 56 49 41 32 24 15 3 352 344 338 335 334 334 334 334 332 328 325 323 322 320 319 318 316 314 310 306 303 301 298 296 294 293 291 289 288 287 285 284 283 282 281 281 281 282 283 282 279 274 270 266 264 263 263 263
332 336 344 352 359 3 1 352 348 17 60 91 111 114 110 98 69 45 37 35 36 35 29 23 17 11 4 356 346 339 336 334 333 331 328 325 323 321 320 318 317 316 316 315 312 310 306 302 299 296 293 291 290 288 287 285 284 283 282 281 281 281 282 283 283 283 282 279 274 268 264 262 263 264
280 283 293 302 313 335 356 359 316 253 214 134 139 141 140 113 42 20 17 13 12 13 9 5 1 358 358 356 352 345 339 336 335 332 329 326 322 318 314 312 310 310 310 310 309 308 305 301 299 295 293 292 290 288 287 285 284 283 282 281 281 281 282 282 282 282 281 279 277 273 267 262 261 262
261 255 262 269 272 277 289 308 288 242 225 201 186 199 215 249 332 342 345 345 347 350 348 346 345 345 347 348 348 346 343 338 336 335 332 328 322 315 310 307 305 304 304 304 305 304 302 299 296 294 292 290 289 288 287 286 285 284 283 282 281 281 280 280 280 279 278 277 276 274 271 266 262 260
271 267 266 263 261 260 263 271 275 260 240 227 226 234 245 268 293 302 306 314 327 333 331 330 333 335 339 342 342 343 342 338 335 333 331 328 324 319 315 312 308 305 304 303 303 302 300 298 295 293 290 288 287 286 286 286 285 284 283 282 282 281 280 279 277 276 275 274 272 270 270 268 265 262
273 272 273 267 262 260 256 258 266 266 258 249 247 251 258 268 278 283 287 297 309 314 315 317 322 326 332 337 338 339 339 337 333 331 330 328 325 322 319 316 313 310 308 306 304 301 299 297 295 292 290 288 286 285 285 284 284 283 283 282 282 282 281 279 277 276 274 272 271 269 268 267 266 264
271 269 273 274 270 264 257 254 257 257 258 259 258 256 261 269 274 278 284 292 297 299 302 307 313 318 324 330 333 335 337 337 333 330 328 326 324 322 320 317 315 313 311 310 307 303 300 299 297 295 293 289 287 285 284 282 281 281 281 281 281 281 280 280 278 277 275 273 272 270 269 268 266 264
271 269 272 274 273 269 262 257 254 252 253 257 261 263 265 266 269 273 278 283 288 292 297 303 308 314 320 324 327 331 333 333 330 327 325 323 320 319 318 317 314 313 313 312 309 307 304 302 301 298 296 293 290 289 286 283 281 279 278 278 278 278 278 278 278 278 277 275 273 272 270 269 267 265
275 274 274 272 271 268 262 256 252 251 252 252 257 263 264 262 265 272 277 279 283 289 295 300 305 312 317 320 323 326 329 330 328 324 321 319 317 317 317 317 315 314 314 313 310 308 307 305 304 302 299 296 294 293 290 287 285 282 279 277 276 275 275 275 276 276 276 276 275 273 271 269 267 266
280 276 271 268 267 266 264 262 258 254 251 249 251 256 260 262 266 272 276 277 282 288 294 298 304 310 314 317 320 323 327 327 324 319 317 316 316 317 317 316 315 313 313 312 309 308 308 307 305 304 303 301 299 297 294 291 288 285 282 280 278 276 274 273 272 273 273 274 274 273 272 270 268 266
286 280 271 266 265 266 268 269 267 262 254 251 250 252 256 260 264 269 273 276 282 288 293 298 304 310 314 316 317 321 324 322 318 315 315 315 315 316 315 314 313 312 312 311 309 308 308 308 305 304 305 304 303 301 300 298 295 292 287 283 280 277 275 274 272 271 270 270 271 271 271 271 269 267
292 289 282 275 272 273 272 271 271 270 264 257 253 249 251 255 260 265 270 275 281 288 294 302 308 313 315 315 315 319 320 317 314 314 314 314 314 314 312 312 312 312 312 311 309 308 309 309 307 306 305 303 303 302 301 301 300 298 295 290 284 278 274 273 272 271 270 269 268 269 269 270 270 269
294 292 289 285 281 279 278 276 275 275 271 262 253 247 248 253 258 264 270 277 286 294 302 309 313 314 314 313 315 317 317 315 314 314 314 314 313 311 310 311 313 314 314 313 310 308 310 309 308 307 306 303 302 301 299 299 300 298 296 293 287 281 276 273 271 270 269 269 268 268 268 268 269 270
293 295 293 289 285 281 278 277 275 272 267 256 248 245 247 251 257 266 276 285 293 301 306 309 311 311 311 313 315 315 315 315 314 314 313 314 314 313 314 315 317 317 316 313 309 306 309 311 309 308 308 306 305 303 301 300 299 296 293 292 288 285 283 280 276 272 270 269 268 269 268 268 269 269
298 300 298 292 287 283 279 275 273 267 254 243 241 243 247 254 264 276 286 293 300 305 307 309 310 310 311 312 313 314 315 315 315 315 316 316 316 315 315 315 315 313 311 309 306 303 307 312 311 308 308 308 307 306 306 304 300 295 292 291 290 290 289 286 283 280 277 273 271 269 269 270 270 270
303 299 294 289 286 288 290 290 280 257 242 241 243 247 256 268 279 288 294 299 303 304 305 306 307 308 310 312 313 314 314 313 313 314 316 315 314 313 312 310 308 307 306 306 305 301 302 308 308 305 306 306 305 306 307 305 300 295 295 297 297 295 291 287 284 282 280 278 276 274 272 271 271 271
304 303 304 309 317 319 317 306 272 248 242 246 254 265 277 287 293 297 299 300 301 301 302 304 306 309 311 312 313 313 312 311 312 312 313 313 312 312 310 306 305 306 307 308 307 304 303 305 305 304 304 303 302 303 304 301 296 298 306 310 306 298 291 286 282 280 277 277 277 277 276 275 274 273
319 330 337 340 340 330 307 285 272 265 263 266 274 284 292 296 297 298 298 298 299 300 303 306 308 310 310 310 310 309 309 309 310 311 312 311 310 307 304 303 303 303 303 305 306 304 303 304 303 304 305 304 301 300 300 297 299 307 313 311 304 298 295 289 284 280 277 275 274 274 276 277 278 278
338 341 334 322 311 301 289 279 275 275 276 278 281 286 290 292 294 295 295 296 298 301 304 306 307 307 307 306 307 308 309 310 311 311 311 309 306 302 299 297 296 293 292 296 300 300 300 301 300 299 299 298 297 299 299 297 300 307 308 302 295 297 298 293 288 286 282 279 276 275 275 275 277 280
297 301 296 289 284 283 282 280 279 280 280 281 283 285 286 288 291 294 296 298 301 303 304 305 305 305 306 306 308 309 310 311 312 310 307 305 304 301 297 295 291 289 291 294 295 295 296 296 296 296 294 291 291 296 298 296 296 300 299 294 294 297 297 294 292 290 289 288 287 283 279 277 278 280
284 286 282 278 276 277 277 278 280 281 281 281 282 283 285 288 291 294 297 300 303 304 304 305 306 307 308 309 311 311 311 312 311 309 307 307 306 304 301 299 295 294 297 297 294 293 292 291 292 293 292 290 290 292 295 294 294 296 296 294 293 295 298 297 293 289 290 290 289 287 284 283 282 280
291 286 277 273 272 275 276 277 279 280 281 281 281 283 287 290 293 296 299 302 304 304 305 307 309 310 311 312 314 314 315 316 314 312 311 311 310 308 304 301 298 298 298 297 294 291 289 288 289 288 287 288 289 290 291 292 294 297 298 297 296 296 298 297 292 290 290 287 286 288 289 290 289 284
296 282 270 269 273 277 279 280 280 281 283 284 287 290 293 296 299 302 304 305 306 307 308 309 311 313 315 316 318 319 319 319 318 317 316 316 315 313 309 307 306 305 303 302 301 298 291 286 286 285 283 282 284 286 288 290 292 295 297 299 301 301 298 295 293 292 290 288 287 287 286 284 285 287
298 279 266 267 274 280 283 284 283 283 286 290 292 295 298 302 304 306 306 307 307 309 310 312 315 318 319 320 322 322 323 324 324 322 321 322 322 319 315 313 312 310 308 306 305 301 291 283 283 283 280 278 278 280 284 288 290 292 295 297 301 304 304 299 295 294 291 289 287 280 272 270 275 284
293 283 271 269 275 280 282 283 283 284 288 292 295 299 303 305 307 306 307 309 310 313 316 318 320 322 323 325 326 328 330 331 328 325 325 326 326 323 318 314 314 313 308 300 299 299 294 286 282 281 279 277 277 278 282 286 289 292 293 292 297 305 308 303 295 293 291 289 286 278 266 264 271 277
284 289 279 272 274 277 278 280 283 286 291 296 300 304 306 306 306 307 309 313 318 322 324 325 326 328 330 332 333 334 335 333 330 330 331 329 326 324 319 316 317 319 314 306 302 305 304 296 289 285 281 279 279 279 280 282 285 289 292 291 293 300 304 302 298 296 293 290 288 282 272 269 271 272
263 271 271 267 269 273 276 281 287 292 297 301 303 304 305 307 309 313 319 324 329 332 334 334 334 335 337 338 337 337 338 336 334 336 337 332 328 328 327 323 323 323 321 317 313 312 310 306 300 295 288 281 281 281 281 282 284 286 290 292 292 294 297 299 300 300 298 294 290 285 282 279 273 269
256 261 262 263 265 269 275 284 291 294 298 300 301 303 308 313 319 326 332 336 338 340 342 342 341 339 339 339 339 340 342 340 338 338 337 336 334 333 331 327 325 325 323 319 319 320 319 314 308 301 294 288 285 282 279 282 285 286 287 289 292 293 295 297 298 300 302 300 295 292 290 288 283 279
254 253 250 250 256 265 277 285 288 291 294 298 304 312 318 324 332 339 341 342 343 345 346 345 342 341 340 339 339 341 342 341 339 336 336 337 336 333 330 326 325 325 323 321 324 326 324 321 317 312 306 301 294 284 279 282 287 287 285 288 291 292 295 298 298 299 300 300 299 298 297 298 301 297
244 237 233 241 254 267 277 281 283 288 297 304 315 327 334 338 344 347 345 343 345 346 345 345 343 343 342 339 337 339 339 338 336 334 335 337 335 331 328 325 324 325 325 325 327 328 323 321 320 316 313 310 302 294 291 291 290 287 285 287 291 293 296 298 296 294 296 298 297 297 301 306 310 307
226 222 223 236 253 263 268 275 285 298 312 323 332 342 348 350 350 349 344 342 344 345 344 343 343 344 343 338 335 336 337 335 333 333 335 336 333 329 327 326 325 326 324 323 325 326 322 320 319 315 311 309 304 299 299 297 295 294 293 292 295 297 296 295 294 292 294 297 295 294 301 307 308 302
206 208 218 232 248 259 264 280 305 321 332 341 347 355 359 358 355 349 344 342 344 344 341 341 342 342 341 337 333 335 336 335 335 336 336 334 331 330 329 327 325 325 323 323 325 327 325 323 321 316 309 303 298 296 297 298 298 300 301 301 303 303 302 301 298 294 292 292 291 293 301 305 304 296
194 197 212 230 248 260 269 300 329 339 347 355 4 10 10 6 1 355 350 346 344 342 341 343 344 343 339 336 334 336 338 339 338 337 335 334 332 331 330 327 326 325 324 323 326 329 329 327 325 320 311 301 293 294 299 301 297 297 303 307 307 306 306 303 298 292 289 288 289 297 305 304 298 289
191 193 211 245 265 278 294 320 339 351 1 11 20 22 17 12 9 6 2 357 351 348 347 348 350 348 344 339 337 338 340 341 339 337 335 334 333 332 329 327 327 326 325 325 328 330 331 330 327 321 309 295 289 290 294 295 297 301 309 312 308 306 304 299 292 290 291 287 287 299 308 307 299 293
185 188 224 276 294 302 308 323 343 1 17 28 31 25 18 14 13 10 6 2 357 353 351 351 352 353 351 346 343 341 340 340 338 335 334 334 333 332 329 327 327 327 327 328 329 330 331 331 325 315 304 297 294 294 293 296 303 313 319 317 312 310 306 296 289 291 293 289 288 296 305 314 325 319
181 198 247 289 306 309 312 327 352 15 32 37 34 25 19 17 14 10 7 4 359 356 354 353 353 354 355 354 352 348 342 339 338 336 335 335 335 333 331 329 330 329 328 327 329 331 331 329 322 314 310 308 306 305 304 307 313 319 322 319 316 315 306 292 288 290 292 290 289 293 304 326 339 327
186 218 260 293 310 313 317 331 1 30 38 36 30 23 20 18 13 8 7 6 3 0 359 357 355 355 355 356 356 352 345 341 339 338 337 337 335 334 333 332 330 328 326 326 330 333 332 328 323 322 323 322 318 314 316 318 319 321 324 324 317 312 306 295 289 286 282 278 280 286 307 352 1 341
208 246 271 294 311 317 319 328 17 42 40 31 22 18 15 12 8 7 7 6 4 3 2 1 359 358 357 356 356 354 350 346 343 340 339 339 338 336 334 333 330 329 329 332 335 335 333 330 330 329 328 329 329 328 329 329 326 324 325 322 313 312 316 311 294 275 265 269 273 262 227 45 5 340
242 269 280 295 313 321 313 295 27 41 33 23 14 7 3 2 3 4 5 6 5 4 2 1 1 359 357 356 355 355 353 350 347 345 344 343 341 339 336 334 333 333 334 337 337 335 333 334 333 327 320 322 329 330 329 329 329 324 319 316 317 326 339 344 335 281 232 225 198 174 165 153 325 252
272 278 281 297 317 321 288 243 25 26 18 7 357 351 350 353 357 359 2 4 4 3 2 1 360 357 355 355 356 357 356 353 350 349 348 346 344 341 338 337 336 334 335 339 339 335 335 338 335 320 310 316 327 330 326 325 326 324 318 320 333 349 0 11 31 81 129 130 121 116 111 107 120 143